Location: Newark
(41.3147°N, 3.1384°W)
Time: 19:00:05
(UTC+00:00)

ISS - Visible Passes

Search period start: 20 October 2019 00:00
Search period end: 30 October 2019 00:00
Orbit: 411 x 421 km, 51.6° (Epoch: 20 October)

Date Brightness Start Highest point End Pass type
(mag) Time Alt. Az. Time Alt. Az. Time Alt. Az.
23 Oct -1.0 05:34:32 10° S 05:37:00 19° SE 05:39:27 10° E visible
24 Oct -0.6 04:47:40 10° SE 04:48:36 11° SE 04:49:30 10° ESE visible
25 Oct -3.0 05:32:58 10° SW 05:36:15 53° SE 05:39:33 10° ENE visible
26 Oct -2.0 04:46:39 24° S 04:47:44 30° SE 04:50:43 10° ENE visible
27 Oct -0.6 04:00:39 14° ESE 04:00:39 14° ESE 04:01:33 10° E visible
27 Oct -3.6 05:33:36 20° WSW 05:35:41 56° NNW 05:39:00 10° NE visible
28 Oct -3.5 04:47:24 67° ENE 04:47:24 67° ENE 04:50:24 10° NE visible
29 Oct -0.5 04:01:05 14° ENE 04:01:05 14° ENE 04:01:40 10° ENE visible
29 Oct -2.5 05:34:00 21° WNW 05:35:16 27° NNW 05:38:12 10° NE visible
